CW5612 Weather Reports


time (UTC)temp
F
wind
direction
speed
knots
gust
knots
rain 1hr
in
rain 24hr
in
rain mn
in
humidity
%
barometer
mb
20260510230206 82 305 0.0 0.0 0.00 0.00 0.00 37 1012.5
20260510225705 82 305 0.0 0.0 0.00 0.00 0.00 37 1012.5
20260510225206 82 305 0.0 0.0 0.00 0.00 0.00 35 1012.5
20260510224206 83 305 0.0 0.0 0.00 0.00 0.00 34 1012.5
20260510223705 83 305 0.0 0.0 0.00 0.00 0.00 34 1012.5
20260510223205 83 305 0.0 0.0 0.00 0.00 0.00 35 1012.5
20260510222705 83 305 0.0 0.0 0.00 0.00 0.00 35 1012.4
20260510222205 83 305 0.0 0.9 0.00 0.00 0.00 35 1012.5
20260510221205 83 305 0.0 0.0 0.00 0.00 0.00 36 1012.4
20260510220704 83 305 0.0 0.0 0.00 0.00 0.00 33 1012.4
20260510220206 83 305 0.0 0.0 0.00 0.00 0.00 35 1012.4
20260510215705 83 305 0.0 0.0 0.00 0.00 0.00 35 1012.5
20260510215207 83 305 0.0 0.0 0.00 0.00 0.00 33 1012.5
20260510214706 83 305 0.9 2.6 0.00 0.00 0.00 32 1012.5
20260510214205 84 305 1.7 4.3 0.00 0.00 0.00 32 1012.6
20260510213705 84 305 2.6 6.1 0.00 0.00 0.00 32 1012.6
20260510213205 84 305 0.0 0.0 0.00 0.00 0.00 31 1012.7
20260510212705 84 305 0.0 0.9 0.00 0.00 0.00 33 1012.5
20260510212204 84 305 2.6 4.3 0.00 0.00 0.00 32 1012.7
20260510211705 84 305 4.3 7.0 0.00 0.00 0.00 31 1012.7
20260510211205 84 298 0.0 0.0 0.00 0.00 0.00 32 1012.6
20260510210705 84 298 0.0 2.6 0.00 0.00 0.00 31 1012.6
20260510210205 84 298 2.6 4.3 0.00 0.00 0.00 30 1012.6
20260510205705 84 298 5.2 7.0 0.00 0.00 0.00 30 1012.6
20260510204706 84 323 2.6 4.3 0.00 0.00 0.00 31 1012.7
20260510204205 84 323 0.9 2.6 0.00 0.00 0.00 33 1012.7
20260510203205 84 323 0.0 0.0 0.00 0.00 0.00 32 1012.6
20260510202205 84 300 0.0 0.0 0.00 0.00 0.00 33 1012.7
20260510201705 84 300 0.0 0.0 0.00 0.00 0.00 32 1012.8
20260510201205 84 300 0.0 0.0 0.00 0.00 0.00 31 1012.7
20260510200705 84 300 6.1 7.0 0.00 0.00 0.00 31 1012.8
20260510200205 84 292 0.0 0.9 0.00 0.00 0.00 33 1012.8
20260510195206 84 286 0.0 0.0 0.00 0.00 0.00 32 1013.0
20260510194205 84 286 0.0 0.0 0.00 0.00 0.00 34 1013.0
20260510193705 83 286 0.0 0.0 0.00 0.00 0.00 34 1013.1
20260510193205 83 286 0.9 4.3 0.00 0.00 0.00 33 1013.2
20260510192206 83 325 0.0 0.0 0.00 0.00 0.00 35 1013.3
20260510191705 83 325 0.0 0.0 0.00 0.00 0.00 34 1013.4
20260510190704 83 325 0.0 0.0 0.00 0.00 0.00 36 1013.2
20260510190205 83 325 0.0 0.0 0.00 0.00 0.00 34 1013.3
20260510185705 83 307 0.0 0.0 0.00 0.00 0.00 35 1013.4
20260510185205 83 307 0.9 4.3 0.00 0.00 0.00 36 1013.6
20260510184704 83 300 0.9 4.3 0.00 0.00 0.00 33 1013.6
20260510184205 83 293 0.0 4.3 0.00 0.00 0.00 33 1013.6
20260510183706 83 293 0.0 2.6 0.00 0.00 0.00 35 1013.6
20260510183205 83 293 1.7 6.1 0.00 0.00 0.00 33 1013.6
20260510182706 83 286 2.6 4.3 0.00 0.00 0.00 33 1013.7
20260510181706 84 294 0.0 0.0 0.00 0.00 0.00 31 1013.8
20260510181204 84 294 2.6 6.1 0.00 0.00 0.00 32 1013.7
20260510180705 84 289 5.2 6.1 0.00 0.00 0.00 31 1013.8
20260510174704 86 315 0.0 0.0 0.00 0.00 0.00 32 1014.0
20260510174205 86 315 0.0 0.0 0.00 0.00 0.00 32 1013.9
20260510173705 86 315 0.0 0.0 0.00 0.00 0.00 32 1014.0
20260510173204 86 315 0.0 0.0 0.00 0.00 0.00 32 1014.0
20260510172705 86 315 0.0 0.0 0.00 0.00 0.00 32 1013.8
20260510172205 86 315 0.0 0.0 0.00 0.00 0.00 31 1013.9
20260510171205 87 315 0.0 0.0 0.00 0.00 0.00 34 1014.0
20260510170204 86 315 0.0 0.0 0.00 0.00 0.00 34 1014.2
20260510165704 86 315 0.0 0.0 0.00 0.00 0.00 34 1014.4
20260510164705 85 315 0.0 0.0 0.00 0.00 0.00 33 1014.5
20260510164204 85 315 0.0 0.0 0.00 0.00 0.00 34 1014.5
20260510163705 84 315 0.0 0.0 0.00 0.00 0.00 39 1014.6
20260510163206 84 315 0.0 0.0 0.00 0.00 0.00 40 1014.6
20260510162705 83 315 0.0 0.0 0.00 0.00 0.00 36 1014.6
20260510162204 83 316 0.0 0.0 0.00 0.00 0.00 37 1014.6
20260510161204 82 314 0.0 0.0 0.00 0.00 0.00 40 1014.7
20260510160204 80 314 0.0 0.0 0.00 0.00 0.00 47 1014.9
20260510154705 79 314 0.0 0.0 0.00 0.00 0.00 47 1014.9
20260510154206 79 314 0.0 0.0 0.00 0.00 0.00 48 1015.0
20260510153205 79 314 0.0 0.0 0.00 0.00 0.00 51 1015.0
20260510152706 78 314 0.0 0.0 0.00 0.00 0.00 51 1015.2
20260510152204 78 314 0.0 0.0 0.00 0.00 0.00 52 1015.2
20260510151205 76 314 0.0 0.0 0.00 0.00 0.00 53 1015.3
20260510150705 76 314 0.0 0.0 0.00 0.00 0.00 57 1015.2
20260510150204 76 314 0.0 0.0 0.00 0.00 0.00 55 1015.4
20260510145705 75 314 0.0 0.0 0.00 0.00 0.00 58 1015.3
20260510145206 74 314 0.0 0.0 0.00 0.00 0.00 58 1015.2
20260510144705 74 314 0.0 0.0 0.00 0.00 0.00 60 1015.2
20260510144204 73 314 0.0 0.0 0.00 0.00 0.00 63 1015.2
20260510143705 72 314 0.0 0.0 0.00 0.00 0.00 64 1015.1
20260510143205 71 314 0.0 0.0 0.00 0.00 0.00 62 1015.1
20260510142704 70 314 0.0 0.0 0.00 0.00 0.00 68 1015.0
20260510142204 69 314 0.0 0.0 0.00 0.00 0.00 76 1015.0
20260510141706 68 314 0.0 0.0 0.00 0.00 0.00 69 1015.0
20260510141204 67 314 0.0 0.0 0.00 0.00 0.00 73 1015.0
20260510140706 66 314 0.0 0.0 0.00 0.00 0.00 77 1014.9
20260510140205 65 314 0.0 0.0 0.00 0.00 0.00 75 1015.0
20260510135704 65 314 0.0 0.0 0.00 0.00 0.00 80 1014.9
20260510135205 64 314 0.0 0.9 0.00 0.00 0.00 80 1014.9
20260510134704 64 314 0.0 0.9 0.00 0.00 0.00 81 1014.8
20260510134205 63 314 0.0 0.9 0.00 0.00 0.00 82 1014.9
20260510133705 63 314 0.0 0.9 0.00 0.00 0.00 83 1014.9
20260510133206 62 314 0.0 0.0 0.00 0.00 0.00 87 1014.7
20260510132704 62 314 0.0 0.0 0.00 0.00 0.00 89 1014.9
20260510132204 61 314 0.0 0.0 0.00 0.00 0.00 90 1014.9
20260510131705 61 314 0.0 0.0 0.00 0.00 0.00 92 1015.0
20260510131205 60 314 0.0 0.0 0.00 0.00 0.00 92 1014.9
20260510130704 60 314 0.0 0.0 0.00 0.00 0.00 92 1014.9
20260510130206 60 314 0.0 0.0 0.00 0.00 0.00 93 1014.8
20260510125704 60 314 0.0 0.0 0.00 0.00 0.00 93 1014.8
20260510125204 60 315 0.0 0.0 0.00 0.00 0.00 94 1014.7
20260510124704 59 315 0.0 0.0 0.00 0.00 0.00 94 1014.7
20260510124204 59 315 0.0 0.0 0.00 0.00 0.00 93 1014.7
20260510123706 59 315 0.0 0.0 0.00 0.00 0.00 93 1014.7
20260510123204 59 315 0.0 0.0 0.00 0.00 0.00 93 1014.8
20260510122204 58 315 0.0 0.0 0.00 0.00 0.00 93 1014.7
20260510121704 58 315 0.0 0.0 0.00 0.00 0.00 93 1014.5
20260510121204 58 315 0.0 0.0 0.00 0.00 0.00 92 1014.4
20260510120704 58 315 0.0 0.0 0.00 0.00 0.00 92 1014.3
20260510115705 58 315 0.0 0.0 0.00 0.00 0.00 91 1014.2
20260510115206 58 315 0.0 0.0 0.00 0.00 0.00 91 1014.2
20260510114705 57 315 0.0 0.0 0.00 0.00 0.00 91 1014.1
20260510114204 58 315 0.0 0.0 0.00 0.00 0.00 91 1014.1
20260510113204 57 315 0.0 0.0 0.00 0.00 0.00 91 1013.9
20260510112204 57 315 0.0 0.0 0.00 0.00 0.00 90 1013.7
20260510111705 57 315 0.0 0.0 0.00 0.00 0.00 90 1013.6
20260510111204 57 315 0.0 0.0 0.00 0.00 0.00 90 1013.6
20260510110704 58 315 0.0 0.0 0.00 0.00 0.00 90 1013.7
20260510110204 58 315 0.0 0.0 0.00 0.00 0.00 90 1013.6
20260510105704 57 315 0.0 0.0 0.00 0.00 0.00 90 1013.5
20260510105204 57 315 0.0 0.0 0.00 0.00 0.00 90 1013.5
20260510104704 58 315 0.0 0.0 0.00 0.00 0.00 90 1013.4
20260510104204 58 315 0.0 0.0 0.00 0.00 0.00 90 1013.4
20260510103704 58 315 0.0 0.0 0.00 0.00 0.00 90 1013.3
20260510103204 58 315 0.0 0.0 0.00 0.00 0.00 90 1013.3
20260510102704 58 315 0.0 0.0 0.00 0.00 0.00 90 1013.1
20260510102204 58 315 0.0 0.0 0.00 0.00 0.00 90 1013.1
20260510101205 58 315 0.0 0.0 0.00 0.00 0.00 89 1013.0
20260510100705 58 315 0.0 0.0 0.00 0.00 0.00 89 1013.0
20260510100204 58 315 0.0 0.0 0.00 0.00 0.00 89 1012.7
20260510095704 58 315 0.0 0.0 0.00 0.00 0.00 89 1012.6
20260510094705 59 315 0.0 0.0 0.00 0.00 0.00 89 1012.5
20260510094204 59 315 0.0 0.0 0.00 0.00 0.00 89 1012.4
20260510093703 59 315 0.0 0.0 0.00 0.00 0.00 89 1012.4
20260510093204 59 315 0.0 0.0 0.00 0.00 0.00 89 1012.3
20260510092705 59 315 0.0 0.0 0.00 0.00 0.00 89 1012.3
20260510092204 59 315 0.0 0.0 0.00 0.00 0.00 89 1012.4
20260510091704 59 315 0.0 0.0 0.00 0.00 0.00 88 1012.4
20260510091204 59 315 0.0 0.0 0.00 0.00 0.00 88 1012.4
20260510090204 59 315 0.0 0.0 0.00 0.00 0.00 89 1012.3
20260510084704 60 315 0.0 0.0 0.00 0.00 0.00 88 1012.0
20260510084204 60 315 0.0 0.0 0.00 0.00 0.00 88 1012.0
20260510082704 60 315 0.0 0.0 0.00 0.00 0.00 88 1012.0
20260510082204 60 315 0.0 0.0 0.00 0.00 0.00 88 1012.1
20260510081704 61 315 0.0 0.0 0.00 0.00 0.00 87 1012.2
20260510081204 61 315 0.0 0.0 0.00 0.00 0.00 87 1012.0
20260510080704 61 315 0.0 0.0 0.00 0.00 0.00 87 1011.9
20260510080203 61 315 0.0 0.0 0.00 0.00 0.00 86 1012.0
20260510075704 61 315 0.0 0.0 0.00 0.00 0.00 86 1011.9
20260510075203 61 315 0.0 0.0 0.00 0.00 0.00 86 1011.9
20260510074704 61 315 0.0 0.0 0.00 0.00 0.00 86 1011.8
20260510074204 61 315 0.0 0.0 0.00 0.00 0.00 85 1011.7
20260510073204 62 315 0.0 0.0 0.00 0.00 0.00 85 1011.6
20260510072704 62 315 0.0 0.0 0.00 0.00 0.00 85 1011.6
20260510072203 62 315 0.0 0.0 0.00 0.00 0.00 84 1011.6
20260510071704 62 315 0.0 0.0 0.00 0.00 0.00 84 1011.7
20260510071203 62 315 0.0 0.0 0.00 0.00 0.00 84 1011.8
20260510070705 62 315 0.0 0.0 0.00 0.00 0.00 84 1011.9
20260510070204 63 315 0.0 0.0 0.00 0.00 0.00 84 1011.6
20260510065705 63 315 0.0 0.0 0.00 0.00 0.00 84 1011.6
20260510064703 63 315 0.0 0.0 0.00 0.00 0.00 83 1011.8
20260510064204 63 315 0.0 0.0 0.00 0.00 0.00 84 1011.7
20260510063204 63 315 0.0 0.0 0.00 0.00 0.00 83 1011.8
20260510062704 64 315 0.0 0.0 0.00 0.00 0.00 83 1011.8
20260510062204 64 315 0.0 0.0 0.00 0.00 0.00 82 1011.9
20260510061705 64 314 0.0 0.0 0.00 0.00 0.00 82 1011.9
20260510061204 64 314 0.0 0.0 0.00 0.00 0.00 82 1011.8
20260510060204 64 314 0.0 0.0 0.00 0.00 0.00 81 1011.9
20260510055703 65 314 0.0 0.0 0.00 0.00 0.00 81 1011.8
20260510055204 65 314 0.0 0.0 0.00 0.00 0.00 80 1011.8
20260510054705 65 314 0.0 0.0 0.00 0.00 0.00 80 1011.8
20260510054204 65 314 0.0 0.0 0.00 0.00 0.00 80 1011.8
20260510053703 65 314 0.0 0.0 0.00 0.00 0.00 80 1011.9
20260510053204 65 314 0.0 0.0 0.00 0.00 0.00 80 1011.9
20260510052704 65 314 0.0 0.0 0.00 0.00 0.00 80 1011.8
20260510052203 65 314 0.0 0.0 0.00 0.00 0.00 80 1011.8
20260510051705 65 314 0.0 0.0 0.00 0.00 0.00 80 1011.9
20260510050205 65 314 0.0 0.0 0.00 0.00 0.00 79 1011.9
20260510045704 65 314 0.0 0.0 0.00 0.00 0.00 79 1011.9
20260510045204 65 314 0.0 0.0 0.00 0.00 0.00 79 1011.8
20260510043704 65 314 0.0 0.0 0.00 0.00 0.00 78 1011.9
20260510043205 65 314 0.0 0.0 0.00 0.00 0.00 78 1011.8
20260510041203 65 314 0.0 0.0 0.00 0.00 0.00 77 1011.7
20260510040704 65 314 0.0 0.0 0.00 0.00 0.00 76 1011.8
20260510040205 65 314 0.0 0.0 0.00 0.00 0.00 76 1011.7
20260510035706 65 314 0.0 0.0 0.00 0.00 0.00 76 1011.6
20260510035206 65 314 0.0 0.0 0.00 0.00 0.00 76 1011.6
20260510034706 65 314 0.0 0.0 0.00 0.00 0.00 75 1011.7
20260510034206 65 314 0.0 0.0 0.00 0.00 0.00 75 1011.5
20260510033705 65 314 0.0 0.0 0.00 0.00 0.00 75 1011.5
20260510033206 66 314 0.0 0.0 0.00 0.00 0.00 74 1011.5
20260510032706 66 314 0.0 0.0 0.00 0.00 0.00 74 1011.6
20260510031706 66 314 0.0 0.0 0.00 0.00 0.00 73 1011.5
20260510031205 66 314 0.0 0.0 0.00 0.00 0.00 72 1011.4
20260510030706 66 314 0.0 0.0 0.00 0.00 0.00 72 1011.4
20260510030207 66 314 0.0 0.0 0.00 0.00 0.00 71 1011.4
20260510025705 66 314 0.0 0.0 0.00 0.00 0.00 71 1011.4
20260510025207 66 314 0.0 0.0 0.00 0.00 0.00 71 1011.3
20260510024705 66 314 0.0 0.0 0.00 0.00 0.00 71 1011.3
20260510024206 66 314 0.0 0.0 0.00 0.00 0.00 70 1011.2
20260510023707 67 314 0.0 0.0 0.00 0.00 0.00 70 1011.3
20260510023206 67 314 0.0 0.0 0.00 0.00 0.00 70 1011.3
20260510022705 67 314 0.0 0.0 0.00 0.00 0.00 69 1011.2
20260510022207 67 314 0.0 0.0 0.00 0.00 0.00 69 1011.2
20260510021706 67 314 0.0 0.0 0.00 0.00 0.00 69 1011.2
20260510021205 67 314 0.0 0.0 0.00 0.00 0.00 69 1011.0
20260510020705 67 314 0.0 0.0 0.00 0.00 0.00 68 1010.9
20260510020206 67 314 0.0 0.0 0.00 0.00 0.00 68 1010.8
20260510015706 68 314 0.0 0.0 0.00 0.00 0.00 68 1010.8
20260510015206 68 314 0.0 0.0 0.00 0.00 0.00 68 1010.6
20260510014705 68 314 0.0 0.0 0.00 0.00 0.00 68 1010.4
20260510013705 68 314 0.0 0.0 0.00 0.00 0.00 67 1010.3
20260510013205 68 314 0.0 0.0 0.00 0.00 0.00 67 1010.3
20260510012707 69 314 0.0 0.0 0.00 0.00 0.00 66 1010.2
20260510011707 69 314 0.0 0.0 0.00 0.00 0.00 66 1010.3
20260510010706 69 314 0.0 0.0 0.00 0.00 0.00 65 1010.0
20260510005706 70 314 0.0 0.0 0.00 0.00 0.00 64 1009.9
20260510005206 70 314 0.0 0.0 0.00 0.00 0.00 63 1010.0
20260510004706 70 314 0.0 0.0 0.00 0.00 0.00 63 1009.9
20260510004207 70 314 0.0 0.0 0.00 0.00 0.00 62 1009.9
20260510003705 70 314 0.0 0.0 0.00 0.00 0.00 62 1009.8
20260510003207 71 314 0.0 0.0 0.00 0.00 0.00 61 1009.8
20260510002205 71 314 0.0 0.0 0.00 0.00 0.00 60 1009.7
20260510001705 71 314 0.0 0.0 0.00 0.00 0.00 60 1009.6
20260510001205 72 314 0.0 0.0 0.00 0.00 0.00 59 1009.5
20260510000705 72 314 0.0 0.0 0.00 0.00 0.00 58 1009.4
20260509235205 73 314 0.0 0.0 0.00 0.00 0.00 57 1009.4
20260509234706 73 314 0.0 0.0 0.00 0.00 0.00 57 1009.3
20260509234205 73 314 0.0 0.0 0.00 0.00 0.00 57 1009.2
20260509233705 73 314 0.0 0.0 0.00 0.00 0.00 56 1009.1
20260509233206 74 314 0.0 0.0 0.00 0.00 0.00 57 1009.2
20260509232705 74 314 0.0 0.0 0.00 0.00 0.00 56 1009.2
20260509231705 74 314 0.0 0.0 0.00 0.00 0.00 55 1009.3